Location: Newark
(0.5300°S, 127.4800°E)
Time: 14:28:12
(UTC+00:00)

A-11 Canister half - Pass Details

Date: 22 September 2019
Orbit: 1514 x 1686 km, 47.2° (Epoch: 17 October)

Event Time Altitude Azimuth Distance (km) Brightness Sun altitude
Rises 08:53:43 0° 335° (NNW) 4,691 11.9 7.3°
Reaches altitude 10° 08:56:58 10° 342° (NNW) 3,730 11.3 6.5°
Maximum altitude 09:05:46 43° 51° (NE) 2,128 9.5 4.3°
Drops below altitude 10° 09:14:51 10° 118° (ESE) 3,867 10.6 2.0°
Sets 09:18:15 0° 125° (SE) 4,877 11.1 1.2°
